<?xml version="1.0" encoding="UTF-8" standalone="no" ?>
<gpx xmlns="http://www.topografix.com/GPX/1/1" xmlns:xsi="http://www.w3.org/2001/XMLSchema-instance" xsi:schemaLocation="http://www.topografix.com/GPX/1/1 http://www.topografix.com/GPX/1/1/gpx.xsd" version="1.1" creator="VisuGPX - https://www.visugpx.com">
  <metadata>
    <name>trace</name>
    <desc><![CDATA[Parcours FAT Bike de Lans en Vercors à Villards de Lans via la Via Vercors]]></desc>
  </metadata>
  <trk>
    <name><![CDATA[trace_1]]></name>
    <extensions>
      <line xmlns="http://www.topografix.com/GPX/gpx_style/0/2">
        <color>0000FF</color>
        <width>4</width>
      </line>
    </extensions>
    <trkseg>
      <trkpt lat="45.12951" lon="5.58427">
        <ele>1005.8</ele>
        <time>2019-05-05T09:04:24Z</time>
      </trkpt>
      <trkpt lat="45.12957" lon="5.58405">
        <ele>1005.2</ele>
        <time>2019-05-05T09:04:24Z</time>
      </trkpt>
      <trkpt lat="45.12966" lon="5.58375">
        <ele>1004.2</ele>
        <time>2019-05-05T09:04:24Z</time>
      </trkpt>
      <trkpt lat="45.12975" lon="5.58345">
        <ele>1003.9</ele>
        <time>2019-05-05T09:04:24Z</time>
      </trkpt>
      <trkpt lat="45.12977" lon="5.58335">
        <ele>1003.8</ele>
        <time>2019-05-05T09:04:24Z</time>
      </trkpt>
      <trkpt lat="45.12958" lon="5.58323">
        <ele>1003.6</ele>
        <time>2019-05-05T09:04:24Z</time>
      </trkpt>
      <trkpt lat="45.1295" lon="5.58323">
        <ele>1003.6</ele>
        <time>2019-05-05T09:04:24Z</time>
      </trkpt>
      <trkpt lat="45.12935" lon="5.58309">
        <ele>1003.1</ele>
        <time>2019-05-05T09:04:24Z</time>
      </trkpt>
      <trkpt lat="45.12904" lon="5.58301">
        <ele>1002.8</ele>
        <time>2019-05-05T09:04:24Z</time>
      </trkpt>
      <trkpt lat="45.12869" lon="5.58294">
        <ele>1002.6</ele>
        <time>2019-05-05T09:04:24Z</time>
      </trkpt>
      <trkpt lat="45.12831" lon="5.58292">
        <ele>1002</ele>
        <time>2019-05-05T09:04:24Z</time>
      </trkpt>
      <trkpt lat="45.12764" lon="5.58269">
        <ele>1002.7</ele>
        <time>2019-05-05T09:04:24Z</time>
      </trkpt>
      <trkpt lat="45.12682" lon="5.58241">
        <ele>1001.9</ele>
        <time>2019-05-05T09:04:24Z</time>
      </trkpt>
      <trkpt lat="45.12606" lon="5.5822">
        <ele>1000.8</ele>
        <time>2019-05-05T09:04:24Z</time>
      </trkpt>
      <trkpt lat="45.12541" lon="5.58194">
        <ele>1000</ele>
        <time>2019-05-05T09:04:24Z</time>
      </trkpt>
      <trkpt lat="45.12497" lon="5.58181">
        <ele>999.9</ele>
        <time>2019-05-05T09:04:24Z</time>
      </trkpt>
      <trkpt lat="45.12331" lon="5.58127">
        <ele>997</ele>
        <time>2019-05-05T09:04:24Z</time>
      </trkpt>
      <trkpt lat="45.12271" lon="5.58107">
        <ele>996</ele>
        <time>2019-05-05T09:04:24Z</time>
      </trkpt>
      <trkpt lat="45.12234" lon="5.58095">
        <ele>996.2</ele>
        <time>2019-05-05T09:04:24Z</time>
      </trkpt>
      <trkpt lat="45.12162" lon="5.58069">
        <ele>996</ele>
        <time>2019-05-05T09:04:24Z</time>
      </trkpt>
      <trkpt lat="45.12048" lon="5.58031">
        <ele>996</ele>
        <time>2019-05-05T09:04:24Z</time>
      </trkpt>
      <trkpt lat="45.11997" lon="5.58001">
        <ele>995</ele>
        <time>2019-05-05T09:04:24Z</time>
      </trkpt>
      <trkpt lat="45.11768" lon="5.57847">
        <ele>993</ele>
        <time>2019-05-05T09:04:24Z</time>
      </trkpt>
      <trkpt lat="45.11409" lon="5.57598">
        <ele>990</ele>
        <time>2019-05-05T09:04:24Z</time>
      </trkpt>
      <trkpt lat="45.11223" lon="5.57469">
        <ele>989.9</ele>
        <time>2019-05-05T09:04:24Z</time>
      </trkpt>
      <trkpt lat="45.11142" lon="5.57412">
        <ele>989.7</ele>
        <time>2019-05-05T09:04:24Z</time>
      </trkpt>
      <trkpt lat="45.111" lon="5.57372">
        <ele>989.1</ele>
        <time>2019-05-05T09:04:24Z</time>
      </trkpt>
      <trkpt lat="45.1091" lon="5.57145">
        <ele>988</ele>
        <time>2019-05-05T09:04:24Z</time>
      </trkpt>
      <trkpt lat="45.10548" lon="5.56727">
        <ele>985.2</ele>
        <time>2019-05-05T09:04:24Z</time>
      </trkpt>
      <trkpt lat="45.10339" lon="5.56523">
        <ele>984</ele>
        <time>2019-05-05T09:04:24Z</time>
      </trkpt>
      <trkpt lat="45.10098" lon="5.56309">
        <ele>983</ele>
        <time>2019-05-05T09:04:24Z</time>
      </trkpt>
      <trkpt lat="45.09629" lon="5.55896">
        <ele>980.4</ele>
        <time>2019-05-05T09:04:24Z</time>
      </trkpt>
      <trkpt lat="45.09517" lon="5.55797">
        <ele>980.3</ele>
        <time>2019-05-05T09:04:24Z</time>
      </trkpt>
      <trkpt lat="45.09484" lon="5.55769">
        <ele>979.9</ele>
        <time>2019-05-05T09:04:24Z</time>
      </trkpt>
      <trkpt lat="45.09448" lon="5.55716">
        <ele>980.2</ele>
        <time>2019-05-05T09:04:24Z</time>
      </trkpt>
      <trkpt lat="45.09418" lon="5.55671">
        <ele>981.1</ele>
        <time>2019-05-05T09:04:24Z</time>
      </trkpt>
      <trkpt lat="45.09405" lon="5.55661">
        <ele>981.6</ele>
        <time>2019-05-05T09:04:24Z</time>
      </trkpt>
      <trkpt lat="45.09404" lon="5.55661">
        <ele>981.6</ele>
        <time>2019-05-05T09:04:24Z</time>
      </trkpt>
      <trkpt lat="45.09385" lon="5.55655">
        <ele>982.4</ele>
        <time>2019-05-05T09:04:24Z</time>
      </trkpt>
      <trkpt lat="45.09373" lon="5.55651">
        <ele>982.4</ele>
        <time>2019-05-05T09:04:24Z</time>
      </trkpt>
      <trkpt lat="45.09348" lon="5.55645">
        <ele>982.4</ele>
        <time>2019-05-05T09:04:24Z</time>
      </trkpt>
      <trkpt lat="45.09319" lon="5.55639">
        <ele>981.5</ele>
        <time>2019-05-05T09:04:24Z</time>
      </trkpt>
      <trkpt lat="45.09285" lon="5.55631">
        <ele>979</ele>
        <time>2019-05-05T09:04:24Z</time>
      </trkpt>
      <trkpt lat="45.09275" lon="5.55629">
        <ele>978.2</ele>
        <time>2019-05-05T09:04:24Z</time>
      </trkpt>
      <trkpt lat="45.0927" lon="5.5563">
        <ele>978.2</ele>
        <time>2019-05-05T09:04:24Z</time>
      </trkpt>
      <trkpt lat="45.09262" lon="5.55631">
        <ele>978</ele>
        <time>2019-05-05T09:04:24Z</time>
      </trkpt>
      <trkpt lat="45.09245" lon="5.55651">
        <ele>977.7</ele>
        <time>2019-05-05T09:04:24Z</time>
      </trkpt>
      <trkpt lat="45.09218" lon="5.55678">
        <ele>977.4</ele>
        <time>2019-05-05T09:04:24Z</time>
      </trkpt>
      <trkpt lat="45.09196" lon="5.55699">
        <ele>978.3</ele>
        <time>2019-05-05T09:04:24Z</time>
      </trkpt>
      <trkpt lat="45.0916" lon="5.55723">
        <ele>979</ele>
        <time>2019-05-05T09:04:24Z</time>
      </trkpt>
      <trkpt lat="45.09152" lon="5.55736">
        <ele>979.7</ele>
        <time>2019-05-05T09:04:24Z</time>
      </trkpt>
      <trkpt lat="45.09127" lon="5.55725">
        <ele>979.1</ele>
        <time>2019-05-05T09:04:24Z</time>
      </trkpt>
      <trkpt lat="45.09091" lon="5.55708">
        <ele>979.2</ele>
        <time>2019-05-05T09:04:24Z</time>
      </trkpt>
      <trkpt lat="45.09068" lon="5.55704">
        <ele>979.3</ele>
        <time>2019-05-05T09:04:24Z</time>
      </trkpt>
      <trkpt lat="45.09055" lon="5.55709">
        <ele>979.5</ele>
        <time>2019-05-05T09:04:24Z</time>
      </trkpt>
      <trkpt lat="45.09034" lon="5.55725">
        <ele>980.8</ele>
        <time>2019-05-05T09:04:24Z</time>
      </trkpt>
      <trkpt lat="45.09021" lon="5.55734">
        <ele>981.1</ele>
        <time>2019-05-05T09:04:24Z</time>
      </trkpt>
      <trkpt lat="45.08999" lon="5.55733">
        <ele>981.4</ele>
        <time>2019-05-05T09:04:24Z</time>
      </trkpt>
      <trkpt lat="45.08979" lon="5.55714">
        <ele>981.8</ele>
        <time>2019-05-05T09:04:24Z</time>
      </trkpt>
      <trkpt lat="45.08966" lon="5.55703">
        <ele>982.1</ele>
        <time>2019-05-05T09:04:24Z</time>
      </trkpt>
      <trkpt lat="45.08953" lon="5.55695">
        <ele>982</ele>
        <time>2019-05-05T09:04:24Z</time>
      </trkpt>
      <trkpt lat="45.08931" lon="5.55677">
        <ele>981.9</ele>
        <time>2019-05-05T09:04:24Z</time>
      </trkpt>
      <trkpt lat="45.08898" lon="5.55652">
        <ele>981.8</ele>
        <time>2019-05-05T09:04:24Z</time>
      </trkpt>
      <trkpt lat="45.08879" lon="5.55632">
        <ele>981.3</ele>
        <time>2019-05-05T09:04:24Z</time>
      </trkpt>
      <trkpt lat="45.08864" lon="5.55618">
        <ele>981.2</ele>
        <time>2019-05-05T09:04:24Z</time>
      </trkpt>
      <trkpt lat="45.08831" lon="5.55588">
        <ele>981.2</ele>
        <time>2019-05-05T09:04:24Z</time>
      </trkpt>
      <trkpt lat="45.08795" lon="5.55561">
        <ele>981.2</ele>
        <time>2019-05-05T09:04:24Z</time>
      </trkpt>
      <trkpt lat="45.08772" lon="5.55545">
        <ele>980.6</ele>
        <time>2019-05-05T09:04:24Z</time>
      </trkpt>
      <trkpt lat="45.08747" lon="5.55533">
        <ele>980.3</ele>
        <time>2019-05-05T09:04:24Z</time>
      </trkpt>
      <trkpt lat="45.08717" lon="5.55519">
        <ele>980.5</ele>
        <time>2019-05-05T09:04:24Z</time>
      </trkpt>
      <trkpt lat="45.08692" lon="5.55508">
        <ele>980.3</ele>
        <time>2019-05-05T09:04:24Z</time>
      </trkpt>
      <trkpt lat="45.08639" lon="5.55491">
        <ele>979.7</ele>
        <time>2019-05-05T09:04:24Z</time>
      </trkpt>
      <trkpt lat="45.0863" lon="5.55487">
        <ele>979.5</ele>
        <time>2019-05-05T09:04:24Z</time>
      </trkpt>
      <trkpt lat="45.08615" lon="5.55484">
        <ele>979.4</ele>
        <time>2019-05-05T09:04:24Z</time>
      </trkpt>
      <trkpt lat="45.08579" lon="5.55475">
        <ele>979</ele>
        <time>2019-05-05T09:04:24Z</time>
      </trkpt>
      <trkpt lat="45.08551" lon="5.55477">
        <ele>978.9</ele>
        <time>2019-05-05T09:04:24Z</time>
      </trkpt>
      <trkpt lat="45.08521" lon="5.55484">
        <ele>978.4</ele>
        <time>2019-05-05T09:04:24Z</time>
      </trkpt>
      <trkpt lat="45.08518" lon="5.55455">
        <ele>977.4</ele>
        <time>2019-05-05T09:04:24Z</time>
      </trkpt>
      <trkpt lat="45.08519" lon="5.55425">
        <ele>976.3</ele>
        <time>2019-05-05T09:04:24Z</time>
      </trkpt>
      <trkpt lat="45.08525" lon="5.554">
        <ele>976</ele>
        <time>2019-05-05T09:04:24Z</time>
      </trkpt>
      <trkpt lat="45.08528" lon="5.55358">
        <ele>975</ele>
        <time>2019-05-05T09:04:24Z</time>
      </trkpt>
      <trkpt lat="45.08531" lon="5.55309">
        <ele>974.9</ele>
        <time>2019-05-05T09:04:24Z</time>
      </trkpt>
      <trkpt lat="45.0853" lon="5.55277">
        <ele>973.9</ele>
        <time>2019-05-05T09:04:24Z</time>
      </trkpt>
      <trkpt lat="45.08517" lon="5.55246">
        <ele>971.8</ele>
        <time>2019-05-05T09:04:24Z</time>
      </trkpt>
      <trkpt lat="45.08511" lon="5.55198">
        <ele>970.1</ele>
        <time>2019-05-05T09:04:24Z</time>
      </trkpt>
      <trkpt lat="45.08513" lon="5.55172">
        <ele>969.2</ele>
        <time>2019-05-05T09:04:24Z</time>
      </trkpt>
      <trkpt lat="45.08509" lon="5.55135">
        <ele>969</ele>
        <time>2019-05-05T09:04:24Z</time>
      </trkpt>
      <trkpt lat="45.08504" lon="5.55103">
        <ele>969.5</ele>
        <time>2019-05-05T09:04:24Z</time>
      </trkpt>
      <trkpt lat="45.08503" lon="5.55089">
        <ele>970.5</ele>
        <time>2019-05-05T09:04:24Z</time>
      </trkpt>
      <trkpt lat="45.0849" lon="5.55084">
        <ele>970.6</ele>
        <time>2019-05-05T09:04:24Z</time>
      </trkpt>
      <trkpt lat="45.0847" lon="5.55082">
        <ele>970.2</ele>
        <time>2019-05-05T09:04:24Z</time>
      </trkpt>
      <trkpt lat="45.08433" lon="5.55083">
        <ele>969.6</ele>
        <time>2019-05-05T09:04:24Z</time>
      </trkpt>
      <trkpt lat="45.08377" lon="5.55065">
        <ele>970.3</ele>
        <time>2019-05-05T09:04:24Z</time>
      </trkpt>
      <trkpt lat="45.08335" lon="5.55064">
        <ele>969.8</ele>
        <time>2019-05-05T09:04:24Z</time>
      </trkpt>
      <trkpt lat="45.0832" lon="5.55054">
        <ele>969.6</ele>
        <time>2019-05-05T09:04:24Z</time>
      </trkpt>
      <trkpt lat="45.08302" lon="5.55041">
        <ele>969.4</ele>
        <time>2019-05-05T09:04:24Z</time>
      </trkpt>
      <trkpt lat="45.08275" lon="5.5503">
        <ele>968.8</ele>
        <time>2019-05-05T09:04:24Z</time>
      </trkpt>
      <trkpt lat="45.08222" lon="5.55005">
        <ele>968.8</ele>
        <time>2019-05-05T09:04:24Z</time>
      </trkpt>
      <trkpt lat="45.08185" lon="5.54986">
        <ele>970.1</ele>
        <time>2019-05-05T09:04:24Z</time>
      </trkpt>
      <trkpt lat="45.08157" lon="5.54969">
        <ele>971.8</ele>
        <time>2019-05-05T09:04:24Z</time>
      </trkpt>
      <trkpt lat="45.08139" lon="5.54958">
        <ele>971.5</ele>
        <time>2019-05-05T09:04:24Z</time>
      </trkpt>
      <trkpt lat="45.08119" lon="5.54941">
        <ele>970.9</ele>
        <time>2019-05-05T09:04:24Z</time>
      </trkpt>
      <trkpt lat="45.08102" lon="5.54923">
        <ele>971.5</ele>
        <time>2019-05-05T09:04:24Z</time>
      </trkpt>
      <trkpt lat="45.08082" lon="5.54911">
        <ele>970.1</ele>
        <time>2019-05-05T09:04:24Z</time>
      </trkpt>
      <trkpt lat="45.0806" lon="5.54896">
        <ele>969.8</ele>
        <time>2019-05-05T09:04:24Z</time>
      </trkpt>
      <trkpt lat="45.08025" lon="5.54882">
        <ele>969.7</ele>
        <time>2019-05-05T09:04:24Z</time>
      </trkpt>
      <trkpt lat="45.08001" lon="5.54877">
        <ele>969.5</ele>
        <time>2019-05-05T09:04:24Z</time>
      </trkpt>
      <trkpt lat="45.07959" lon="5.54872">
        <ele>969.1</ele>
        <time>2019-05-05T09:04:24Z</time>
      </trkpt>
      <trkpt lat="45.07934" lon="5.54866">
        <ele>969.6</ele>
        <time>2019-05-05T09:04:24Z</time>
      </trkpt>
      <trkpt lat="45.079" lon="5.54868">
        <ele>970.3</ele>
        <time>2019-05-05T09:04:24Z</time>
      </trkpt>
      <trkpt lat="45.07872" lon="5.54861">
        <ele>971.6</ele>
        <time>2019-05-05T09:04:24Z</time>
      </trkpt>
      <trkpt lat="45.07837" lon="5.54849">
        <ele>972.8</ele>
        <time>2019-05-05T09:04:24Z</time>
      </trkpt>
      <trkpt lat="45.07792" lon="5.54833">
        <ele>973.7</ele>
        <time>2019-05-05T09:04:24Z</time>
      </trkpt>
      <trkpt lat="45.07734" lon="5.54807">
        <ele>971</ele>
        <time>2019-05-05T09:04:24Z</time>
      </trkpt>
      <trkpt lat="45.07663" lon="5.54771">
        <ele>970.2</ele>
        <time>2019-05-05T09:04:24Z</time>
      </trkpt>
      <trkpt lat="45.07623" lon="5.54754">
        <ele>969.1</ele>
        <time>2019-05-05T09:04:24Z</time>
      </trkpt>
      <trkpt lat="45.07595" lon="5.54736">
        <ele>970.1</ele>
        <time>2019-05-05T09:04:24Z</time>
      </trkpt>
      <trkpt lat="45.07562" lon="5.54719">
        <ele>969.6</ele>
        <time>2019-05-05T09:04:24Z</time>
      </trkpt>
      <trkpt lat="45.07561" lon="5.54719">
        <ele>969.4</ele>
        <time>2019-05-05T09:04:24Z</time>
      </trkpt>
      <trkpt lat="45.07544" lon="5.54717">
        <ele>967.4</ele>
        <time>2019-05-05T09:04:24Z</time>
      </trkpt>
      <trkpt lat="45.07522" lon="5.5471">
        <ele>965.4</ele>
        <time>2019-05-05T09:04:24Z</time>
      </trkpt>
      <trkpt lat="45.07482" lon="5.54691">
        <ele>963.1</ele>
        <time>2019-05-05T09:04:24Z</time>
      </trkpt>
      <trkpt lat="45.07416" lon="5.54641">
        <ele>961.6</ele>
        <time>2019-05-05T09:04:24Z</time>
      </trkpt>
      <trkpt lat="45.07402" lon="5.5462">
        <ele>961.3</ele>
        <time>2019-05-05T09:04:24Z</time>
      </trkpt>
      <trkpt lat="45.07394" lon="5.54616">
        <ele>959.4</ele>
        <time>2019-05-05T09:04:24Z</time>
      </trkpt>
      <trkpt lat="45.07388" lon="5.54618">
        <ele>957.7</ele>
        <time>2019-05-05T09:04:24Z</time>
      </trkpt>
      <trkpt lat="45.07384" lon="5.54638">
        <ele>957.2</ele>
        <time>2019-05-05T09:04:24Z</time>
      </trkpt>
      <trkpt lat="45.07372" lon="5.54663">
        <ele>959</ele>
        <time>2019-05-05T09:04:24Z</time>
      </trkpt>
      <trkpt lat="45.07357" lon="5.54674">
        <ele>960</ele>
        <time>2019-05-05T09:04:24Z</time>
      </trkpt>
      <trkpt lat="45.07346" lon="5.54687">
        <ele>960</ele>
        <time>2019-05-05T09:04:24Z</time>
      </trkpt>
      <trkpt lat="45.07347" lon="5.54706">
        <ele>960.2</ele>
        <time>2019-05-05T09:04:24Z</time>
      </trkpt>
      <trkpt lat="45.07356" lon="5.54724">
        <ele>960.3</ele>
        <time>2019-05-05T09:04:24Z</time>
      </trkpt>
      <trkpt lat="45.0736" lon="5.54752">
        <ele>962.2</ele>
        <time>2019-05-05T09:04:24Z</time>
      </trkpt>
      <trkpt lat="45.0736" lon="5.54754">
        <ele>962.3</ele>
        <time>2019-05-05T09:04:24Z</time>
      </trkpt>
      <trkpt lat="45.07369" lon="5.54789">
        <ele>964.3</ele>
        <time>2019-05-05T09:04:24Z</time>
      </trkpt>
      <trkpt lat="45.07375" lon="5.54816">
        <ele>966.4</ele>
        <time>2019-05-05T09:04:24Z</time>
      </trkpt>
      <trkpt lat="45.07369" lon="5.54822">
        <ele>967.6</ele>
        <time>2019-05-05T09:04:24Z</time>
      </trkpt>
      <trkpt lat="45.07347" lon="5.54795">
        <ele>966.3</ele>
        <time>2019-05-05T09:04:24Z</time>
      </trkpt>
      <trkpt lat="45.07345" lon="5.54794">
        <ele>966.4</ele>
        <time>2019-05-05T09:04:24Z</time>
      </trkpt>
      <trkpt lat="45.07309" lon="5.54773">
        <ele>967.2</ele>
        <time>2019-05-05T09:04:24Z</time>
      </trkpt>
      <trkpt lat="45.07305" lon="5.54772">
        <ele>967.4</ele>
        <time>2019-05-05T09:04:24Z</time>
      </trkpt>
      <trkpt lat="45.07277" lon="5.54762">
        <ele>969.2</ele>
        <time>2019-05-05T09:04:24Z</time>
      </trkpt>
      <trkpt lat="45.07275" lon="5.54763">
        <ele>969.6</ele>
        <time>2019-05-05T09:04:24Z</time>
      </trkpt>
      <trkpt lat="45.07242" lon="5.54778">
        <ele>975.9</ele>
        <time>2019-05-05T09:04:24Z</time>
      </trkpt>
      <trkpt lat="45.07224" lon="5.54778">
        <ele>977.8</ele>
        <time>2019-05-05T09:04:24Z</time>
      </trkpt>
      <trkpt lat="45.07204" lon="5.54768">
        <ele>978.5</ele>
        <time>2019-05-05T09:04:24Z</time>
      </trkpt>
      <trkpt lat="45.07179" lon="5.54753">
        <ele>978.3</ele>
        <time>2019-05-05T09:04:24Z</time>
      </trkpt>
      <trkpt lat="45.07138" lon="5.54733">
        <ele>978.3</ele>
        <time>2019-05-05T09:04:24Z</time>
      </trkpt>
      <trkpt lat="45.07108" lon="5.54727">
        <ele>979.5</ele>
        <time>2019-05-05T09:04:24Z</time>
      </trkpt>
      <trkpt lat="45.07079" lon="5.54716">
        <ele>979.8</ele>
        <time>2019-05-05T09:04:24Z</time>
      </trkpt>
      <trkpt lat="45.07052" lon="5.54706">
        <ele>978.7</ele>
        <time>2019-05-05T09:04:24Z</time>
      </trkpt>
      <trkpt lat="45.07017" lon="5.54703">
        <ele>980.2</ele>
        <time>2019-05-05T09:04:24Z</time>
      </trkpt>
      <trkpt lat="45.06982" lon="5.54701">
        <ele>980.3</ele>
        <time>2019-05-05T09:04:24Z</time>
      </trkpt>
      <trkpt lat="45.06953" lon="5.54702">
        <ele>979.9</ele>
        <time>2019-05-05T09:04:24Z</time>
      </trkpt>
      <trkpt lat="45.0691" lon="5.547">
        <ele>977.5</ele>
        <time>2019-05-05T09:04:24Z</time>
      </trkpt>
      <trkpt lat="45.06891" lon="5.54713">
        <ele>977.9</ele>
        <time>2019-05-05T09:04:24Z</time>
      </trkpt>
      <trkpt lat="45.06868" lon="5.54752">
        <ele>979.7</ele>
        <time>2019-05-05T09:04:24Z</time>
      </trkpt>
      <trkpt lat="45.06859" lon="5.54768">
        <ele>980.4</ele>
        <time>2019-05-05T09:04:24Z</time>
      </trkpt>
      <trkpt lat="45.06816" lon="5.54846">
        <ele>981.6</ele>
        <time>2019-05-05T09:04:24Z</time>
      </trkpt>
      <trkpt lat="45.06843" lon="5.5487">
        <ele>987</ele>
        <time>2019-05-05T09:04:24Z</time>
      </trkpt>
      <trkpt lat="45.0685" lon="5.54889">
        <ele>989.7</ele>
        <time>2019-05-05T09:04:24Z</time>
      </trkpt>
      <trkpt lat="45.0685" lon="5.54956">
        <ele>992.5</ele>
        <time>2019-05-05T09:04:24Z</time>
      </trkpt>
      <trkpt lat="45.06871" lon="5.55013">
        <ele>1000.4</ele>
        <time>2019-05-05T09:04:24Z</time>
      </trkpt>
      <trkpt lat="45.06892" lon="5.54975">
        <ele>1006.1</ele>
        <time>2019-05-05T09:04:24Z</time>
      </trkpt>
      <trkpt lat="45.06913" lon="5.54894">
        <ele>1010.9</ele>
        <time>2019-05-05T09:04:24Z</time>
      </trkpt>
      <trkpt lat="45.06919" lon="5.54893">
        <ele>1012.4</ele>
        <time>2019-05-05T09:04:24Z</time>
      </trkpt>
      <trkpt lat="45.06925" lon="5.54963">
        <ele>1015.4</ele>
        <time>2019-05-05T09:04:24Z</time>
      </trkpt>
      <trkpt lat="45.06978" lon="5.54995">
        <ele>1020</ele>
        <time>2019-05-05T09:04:24Z</time>
      </trkpt>
      <trkpt lat="45.06997" lon="5.55039">
        <ele>1020.9</ele>
        <time>2019-05-05T09:04:24Z</time>
      </trkpt>
      <trkpt lat="45.07026" lon="5.55067">
        <ele>1021.4</ele>
        <time>2019-05-05T09:04:24Z</time>
      </trkpt>
      <trkpt lat="45.0703" lon="5.55094">
        <ele>1022.3</ele>
        <time>2019-05-05T09:04:24Z</time>
      </trkpt>
      <trkpt lat="45.07049" lon="5.55112">
        <ele>1022.3</ele>
        <time>2019-05-05T09:04:24Z</time>
      </trkpt>
      <trkpt lat="45.07098" lon="5.55122">
        <ele>1020.9</ele>
        <time>2019-05-05T09:04:24Z</time>
      </trkpt>
      <trkpt lat="45.07173" lon="5.55161">
        <ele>1019.5</ele>
        <time>2019-05-05T09:04:24Z</time>
      </trkpt>
      <trkpt lat="45.07244" lon="5.55256">
        <ele>1019.6</ele>
        <time>2019-05-05T09:04:24Z</time>
      </trkpt>
      <trkpt lat="45.07258" lon="5.55227">
        <ele>1016.2</ele>
        <time>2019-05-05T09:04:24Z</time>
      </trkpt>
    </trkseg>
  </trk>
</gpx>